Location: Mount Cross
(36.6390°N, 79.4878°W)
Time: 02:01:18
(UTC+00:00)

SR - Pass Details

Date: 29 March 2023
Orbit: 580 x 867 km, 66.7° (Epoch: 08 June)

Event Time Altitude Azimuth Distance (km) Brightness Sun altitude
Rises 15:00:32 0° 341° (NNW) 2,823 ? 43.4°
Reaches altitude 10° 15:02:52 10° 350° (N) 1,938 ? 43.8°
Maximum altitude 15:06:53 36° 58° (ENE) 986 ? 44.4°
Drops below altitude 10° 15:11:06 10° 125° (SE) 2,043 ? 45.1°
Sets 15:13:37 0° 134° (SE) 2,997 ? 45.5°
